Overview Statistics Trail Chart Weather Telemetry Raw packets
 

This is the latest recevied weather packets stored in our database for station/object DC1MPP-9. If no packets are shown the sender has not sent any weather packets the latest 10 day(s).

<< 67 68 69 70 71 72 73 >>
Time Temp. Humidity Pressure Rain* Wind** Luminosity Snow
1788085487 29.44° C 46% 960 hPa - - - -
1788085246 29.44° C 50% 960 hPa - - - -
1788085005 28.89° C 47% 960 hPa - - - -
1788084764 28.89° C 47% 960 hPa - - - -
1788084523 29.44° C 52% 960 hPa - - - -
1788084282 29.44° C 49% 960 hPa - - - -
1788084041 28.89° C 52% 960 hPa - - - -
1788083800 28.89° C 50% 960 hPa - - - -
1788083559 28.89° C 49% 960 hPa - - - -
1788083318 28.33° C 58% 960 hPa - - - -
1788083077 27.78° C 58% 960 hPa - - - -
1788082835 28.33° C 51% 960 hPa - - - -
1788082594 28.33° C 57% 960 hPa - - - -
1788082353 27.78° C 53% 960 hPa - - - -
1788082112 27.78° C 54% 960 hPa - - - -
1788081871 27.78° C 63% 960 hPa - - - -
1788081630 27.78° C 53% 960 hPa - - - -
1788081389 27.78° C 62% 960 hPa - - - -
1788081148 27.22° C 61% 960 hPa - - - -
1788080908 26.67° C 60% 960 hPa - - - -
1788080425 26.67° C 74% 960 hPa - - - -
1788080184 26.11° C 64% 960 hPa - - - -
1788079943 26.11° C 67% 960 hPa - - - -
1788079702 26.11° C 63% 960 hPa - - - -
1788079461 25.56° C 74% 960 hPa - - - -

* Rain since midnight (hover to see other rain measurements)
** Current wind speed in m/s (hover to see current wind gust speed)